Ames, IA

6:02 PM CDT on April 26, 2017 (GMT -0500)
Ames Municipal

Weather History for KAMW - July, 2013

Change the Weather History Date:

Friday, July 12, 2013

  Actual Average Record
Temperature  
Mean Temperature 73 °F 74 °F  
Max Temperature 86 °F 84 °F 91 °F (2015)
Min Temperature 60 °F 63 °F 54 °F (1999)
Degree Days  
Heating Degree Days 0 0  
Month to date heating degree days 0 0  
Since 1 June heating degree days 42 24  
Since 1 July heating degree days 0 0  
Cooling Degree Days 8 9  
Month to date cooling degree days 113 101  
Year to date cooling degree days 355 324  
Since 1 June cooling degree days 300 275  
Growing Degree Days 22 (Base 50)    
Moisture  
Dew Point 60 °F    
Average Humidity 67    
Maximum Humidity 90    
Minimum Humidity 44    
Precipitation  
Precipitation 0.00 in 0.15 in 2.50 in (1987)
Month to date precipitation 0.11 2.05  
Sea Level Pressure  
Sea Level Pressure 30.03 in    
Wind  
Wind Speed 10 mph (SSE)    
Max Wind Speed 20 mph    
Max Gust Speed 26 mph    
Visibility 10 miles    
Events      
T = Trace of Precipitation, MM = Missing Value Source: NWS Daily Summary

Daily Weather History Graph

Daily Weather History Graph

Search for Another Location

Airport or City:

Trip Planner

Search our weather history database for the weather conditions in past years. The results will help you decide how hot, cold, wet, or windy it might be!

Date:

Astronomy

Jul. 12, 2013 Rise Set
Actual Time 5:50 AM CDT 8:49 PM CDT
Civil Twilight 5:16 AM CDT 9:23 PM CDT
Nautical Twilight 4:33 AM CDT 10:05 PM CDT
Astronomical Twilight 3:43 AM CDT 10:55 PM CDT
Moon 10:12 AM CDT (7/12) 10:55 PM CDT (7/12)
Length of Visible Light 16h 06m
Length of Day
14h 59m
Waxing Crescent, 17% of the Moon is Illuminated
Jul 12
Waxing Crescent
Jul 15
First Quarter
Jul 22
Full
Jul 29
Last Quarter
Aug 6
New

Hourly Weather History & Observations

Time (CDT) Temp. Heat Index Dew Point Humidity Pressure Visibility Wind Dir Wind Speed Gust Speed Precip Events Conditions
12:53 AM 64.0 °F - 57.0 °F 78% 30.05 in 10.0 mi SE 4.6 mph - N/A   Clear
1:53 AM 62.1 °F - 57.0 °F 84% 30.05 in 10.0 mi SSE 4.6 mph - N/A   Clear
2:53 AM 62.1 °F - 57.0 °F 84% 30.05 in 10.0 mi South 3.5 mph - N/A   Clear
3:53 AM 61.0 °F - 57.9 °F 90% 30.05 in 9.0 mi SSE 3.5 mph - N/A   Clear
4:53 AM 60.1 °F - 57.0 °F 90% 30.06 in 9.0 mi SE 4.6 mph - N/A   Clear
5:53 AM 61.0 °F - 57.9 °F 90% 30.06 in 8.0 mi SE 5.8 mph - N/A   Clear
6:53 AM 62.1 °F - 59.0 °F 90% 30.07 in 7.0 mi SE 5.8 mph - N/A   Clear
7:53 AM 66.9 °F - 60.1 °F 79% 30.07 in 8.0 mi SSE 9.2 mph - N/A   Clear
8:53 AM 73.0 °F - 60.1 °F 64% 30.07 in 9.0 mi SSE 11.5 mph - N/A   Clear
9:53 AM 75.9 °F - 60.1 °F 58% 30.06 in 10.0 mi South 15.0 mph - N/A   Clear
10:53 AM 78.1 °F - 60.1 °F 54% 30.05 in 10.0 mi SE 18.4 mph 23.0 mph N/A   Clear
11:53 AM 81.0 °F 81.9 °F 62.1 °F 52% 30.04 in 10.0 mi South 13.8 mph - N/A   Clear
12:53 PM 82.0 °F 82.4 °F 60.1 °F 47% 30.04 in 10.0 mi SSE 13.8 mph 20.7 mph N/A   Clear
1:53 PM 84.0 °F 84.5 °F 62.1 °F 47% 30.03 in 10.0 mi SSE 16.1 mph 23.0 mph N/A   Clear
2:53 PM 84.9 °F 85.4 °F 62.1 °F 46% 30.02 in 10.0 mi SSE 13.8 mph 20.7 mph N/A   Clear
3:53 PM 84.9 °F 85.0 °F 61.0 °F 44% 30.00 in 10.0 mi SSE 12.7 mph 25.3 mph N/A   Clear
4:53 PM 84.9 °F 85.0 °F 61.0 °F 44% 30.00 in 10.0 mi SSE 13.8 mph 23.0 mph N/A   Clear
5:53 PM 84.0 °F 84.4 °F 61.0 °F 46% 30.00 in 10.0 mi SSE 13.8 mph - N/A   Clear
6:53 PM 82.9 °F 83.3 °F 61.0 °F 47% 29.99 in 10.0 mi SSE 12.7 mph 20.7 mph N/A   Clear
7:53 PM 80.1 °F 81.1 °F 61.0 °F 52% 29.99 in 10.0 mi SSE 10.4 mph 18.4 mph N/A   Clear
8:53 PM 75.9 °F - 60.1 °F 58% 29.98 in 10.0 mi SE 5.8 mph - N/A   Clear
9:53 PM 73.0 °F - 62.1 °F 68% 29.99 in 10.0 mi SE 5.8 mph - N/A   Clear
10:53 PM 71.1 °F - 61.0 °F 70% 29.99 in 10.0 mi SE 8.1 mph - N/A   Clear
11:53 PM 70.0 °F - 60.1 °F 71% 29.99 in 10.0 mi SSE 8.1 mph - N/A   Clear